LiveATC.Net - Listen to live air traffic control over the Internet!


ICAO: KMLB  IATA: MLB   Airport: Melbourne International Airport
City: Melbourne   State/Province: Florida
Country: United States   Continent: North America
KMLB METAR Weather: KMLB 061653Z 07009KT 10SM FEW050 27/14 A3008 RMK AO2 SLP185 T02670144
KMLB ADS-B Flight Tracking (ADSBExchange)
KMLB Flight Activity (FlightAware)
KMLB Airport Info   (iFlightPlanner)
KMLB VFR Sectional Chart   (iFlightPlanner) 
KMLB IFR Low Altitude Chart   (iFlightPlanner) 
KMLB IFR High Altitude Chart   (iFlightPlanner) 

KMLB Twr/App
Feed Status: UP   Listeners: 1
Listen in your browser - HTML5 player (in browser, HTML5)
Click here to listen with your own player (launches your MP3 player)
Archive Access: KMLB Twr/App
FacilityFrequency
Melbourne Tower118.200
Orlando Approach132.650
Sponsored by:
Melbourne Area Pilots Association

NOTICE

Unauthorized use prohibited. See LiveATC.net Terms of Service


Airport/ARTCC Code
Frequency Search
(e.g., 124.400, 128.75)
Site-wide search
 


Browse Feeds
Top 50 Feeds
HF Oceanic Feeds
Coverage Map
Bad Weather Areas

LiveATC FAQ
Offer LiveATC feed
Contact LiveATC.net
Press Inquiries

LiveATC on iPhone
LiveATC on Android

LiveATC Mobile
(Mobile browser)

ATC Audio Archives
Interesting Recordings

LiveATC Forums


Home Page
About LiveATC.net


Terms of Use
Privacy Policy

AIRMETs/SIGMETs

FAA Airport Status
NAS Status
Arrival Demand


Server Software By:
Icecast.org
Liquidsoap